Погода в Дубровке

Россия / Новгородская область     58°37′09″N   31°56′43″E
темп.,
°C
ветер,
м/с
пор.,
м/с
влажн.,
%
обл.,
%
осадки,
мм/ч
давл.,
гПа
погр.,
м
17 мая, пн
пн1700:00+11вюв11945 0.0 101210
03:00+11вюв22965 0.0 101229
06:00+11вюв259584 0.0 1013129
09:00+17вюв3575100 0.0 1013397
12:00+23юв4745100 0.0 10121699
15:00+24юв4740100 0.0 10102360
18:00+23вюв3751100 0.0 1009526
21:00+18вюв41377100 0.3 1008403
18 мая, вт
вт1800:00+17вюв41490100 0.6 1007484
03:00+16вюв4129413 0.7 1006384
06:00+16вюв41391100 0.0 1004483
09:00+21юв51267100 0.0 1004761
12:00+26ююв61052100 0.0 10041574
15:00+28ююв6104193 0.0 10032808
18:00+25ююз51058100 0.4 10031514
21:00+16ююв2198100 4.4 100520
19 мая, ср
ср1900:00+17ююв1287100 2.5 100428
03:00+15вюв279795 2.5 1004152
06:00+15ююв31093100 0.0 1004348
09:00+18ююв3882100 0.0 1005483
12:00+22ю3656100 0.1 10051513
15:00+22ююз3563100 1.1 10051062
18:00+19ююв368932 4.3 1005376
21:00+16ююв11925 6.1 100512
20 мая, чт
чт2000:00+14юв259883 1.2 100696
03:00+13юв2598100 1.2 1006115
06:00+14юв2697100 0.0 1006176
09:00+18вюв2382100 0.0 1005409
12:00+20вюв377662 1.1 10031153
15:00+17ю2496100 5.5 1001208
18:00+15ю3796100 0.6 1000405
21:00+14ююз41095100 0.7 1001571
21 мая, пт
пт2100:00+12ююз4109876 0.0 1001528
03:00+11юз4897100 0.1 1003657
06:00+10зюз51096100 0.6 1005810
09:00+9юз51296100 1.0 1009662
12:00+14юз696548 0.2 1011944
15:00+18зюз684485 0.2 10121745
18:00+17юз4749100 0.0 10131893
21:00+12ю39756 0.0 1013223